Temp
23 21 22 22 22 22 21 22 22 22 22 22 22 22 22 22 22 21 21 21 21 21 21 21 21 21 22 21 21 22 22 22 22 22 23 23 23 23 22 22 22 22 22
23 22 22 22 22 22 22 22 21 22 22 22 21 22 22 22 22 22 22 21 21 21 21 21 21 21 22 22 22 22 22 22 22 23 23 23 23 23 22 22 22 22 22
24 22 22 22 22 22 22 21 21 21 21 21 22 21 21 21 21 21 21 21 21 21 21 21 22 22 23 23 22 22 23 23 23 22 22 22 23 23 23 22 22 22 22
25 23 22 22 22 22 22 21 21 21 21 21 21 22 22 21 21 21 21 21 21 21 21 21 21 22 23 23 23 23 23 23 23 23 22 23 23 23 23 23 22 21 22
25 24 21 22 22 21 21 21 21 21 21 21 21 22 21 21 21 21 21 21 21 22 22 22 21 21 21 22 22 23 23 23 24 23 24 23 22 24 23 23 23 22 22
26 24 21 22 21 21 21 21 21 21 21 21 21 21 21 21 21 21 21 21 21 22 22 22 22 21 21 21 21 21 22 23 24 24 23 25 23 23 23 23 22 21 22
26 23 22 22 21 21 21 21 21 21 21 21 21 21 21 22 22 22 22 22 22 22 22 22 22 21 21 21 21 21 22 23 23 24 24 24 24 23 23 24 23 23 23
26 25 22 22 22 21 21 21 21 21 21 21 21 22 22 23 23 23 23 23 23 23 23 23 22 22 21 22 22 22 22 23 23 24 26 24 25 26 23 24 23 23 23
27 26 23 22 22 21 22 22 22 22 22 22 22 23 24 24 25 25 24 24 24 24 24 24 24 23 23 23 23 23 24 24 24 24 24 25 23 24 23 24 23 23 23
29 27 26 24 23 23 22 23 22 23 23 23 24 25 25 25 25 24 24 24 25 25 24 25 24 25 25 24 24 23 22 23 25 24 24 24 23 23 24 24 24 23 23
30 28 27 26 25 25 24 23 24 24 24 25 25 25 25 25 25 25 25 26 26 25 26 26 26 25 26 25 23 24 22 26 23 21 24 26 26 25 24 24 24 23 22
30 30 29 28 27 26 26 25 25 25 25 25 24 25 25 26 26 26 26 26 26 25 26 27 27 26 26 24 26 25 24 26 21 22 24 25 26 26 25 24 24 23 22
31 30 29 29 28 28 27 27 27 26 26 26 26 25 26 27 27 27 27 26 27 26 27 28 28 26 26 26 23 24 24 22 25 25 26 26 25 26 25 25 24 23 22
31 31 30 29 29 29 28 28 29 29 28 27 26 26 26 26 26 27 27 27 25 27 26 27 29 29 28 27 26 25 30 28 25 26 27 25 26 26 25 24 24 23 22
32 31 31 28 27 27 28 28 28 29 28 28 28 27 26 27 27 27 27 27 24 27 28 28 28 29 29 27 28 27 29 29 28 28 27 26 26 26 25 23 23 22 21
32 31 30 27 26 26 27 27 27 28 28 28 28 27 27 27 27 27 27 27 26 27 29 29 29 29 29 29 28 29 29 29 29 29 28 27 25 25 24 24 23 22 21
32 31 30 28 26 26 26 26 26 28 28 28 29 28 27 27 27 27 27 26 28 28 29 28 28 29 28 29 29 29 30 30 30 29 28 27 25 25 24 23 23 23 22
32 31 30 30 28 26 26 26 27 28 28 28 29 28 27 27 27 27 25 25 28 27 29 29 30 28 26 29 29 29 30 30 29 28 28 26 25 24 24 24 23 23 22
31 31 30 30 28 27 26 27 27 28 28 28 28 28 28 28 27 28 27 27 29 28 30 29 28 25 27 27 27 30 31 30 29 28 27 27 25 25 24 23 22 22 21
30 30 30 30 29 27 26 27 28 29 29 28 29 28 28 28 29 28 28 29 29 29 29 29 28 27 24 27 28 30 30 30 29 28 26 25 26 26 24 23 22 22 21
31 30 29 29 28 28 27 27 28 29 29 29 29 29 27 29 29 28 29 27 29 30 30 29 29 29 28 29 28 29 30 31 29 28 27 26 26 25 24 23 22 21 21
31 30 29 29 28 28 28 28 29 30 30 30 30 30 29 29 29 29 29 29 29 30 27 26 28 28 28 28 28 29 27 29 29 29 27 26 25 24 23 23 22 21 21
31 30 29 29 28 28 28 29 29 29 29 30 30 29 29 29 29 29 29 29 28 28 28 27 26 28 28 28 28 28 25 26 28 30 28 27 25 24 23 22 21 21 21
32 31 30 29 29 28 28 28 29 29 29 30 30 30 30 29 29 29 29 29 29 28 27 24 25 28 28 28 28 28 28 28 25 26 29 26 24 23 22 22 22 21 21
34 32 31 29 29 29 28 28 29 29 30 30 31 30 30 29 29 29 30 29 29 29 28 29 28 28 28 28 28 28 29 28 27 27 26 27 24 23 22 21 22 22 21
35 34 32 30 29 29 28 28 28 29 29 29 30 30 30 30 30 29 29 30 29 29 29 28 28 28 27 27 27 27 28 28 27 23 26 27 27 23 21 21 21 21 21
Height
809 811 814 815 817 819 821 823 824 826 827 828 829 830 831 833 833 835 835 835 835 835 836 835 835 835 834 834 834 833 834 833 833 834 834 835 836 837 838 840 841 843 844
808 813 815 817 819 821 823 825 826 828 830 831 832 833 834 835 836 837 837 838 838 838 838 837 837 836 834 834 833 833 833 833 834 834 835 835 837 839 841 842 843 845 846
809 813 817 819 821 823 825 827 829 830 832 833 834 835 836 837 838 839 840 840 840 840 840 839 838 837 836 834 834 834 834 834 835 835 836 837 839 841 842 844 845 847 848
809 814 818 820 823 825 827 828 830 832 833 835 836 838 838 839 840 840 841 841 841 841 840 839 838 837 837 837 837 836 835 834 834 834 837 839 839 837 842 843 844 846 848
811 815 818 821 824 826 828 830 831 833 835 837 837 838 839 840 841 841 840 840 840 839 837 836 836 836 838 839 839 838 836 835 834 834 835 837 835 838 842 842 843 845 847
811 816 819 822 825 827 830 831 833 834 836 837 838 839 841 841 840 839 839 839 838 836 835 834 835 836 838 837 836 836 836 835 835 836 837 837 839 842 844 842 842 844 846
811 817 821 823 826 828 830 832 834 835 836 837 838 839 840 839 838 838 838 838 837 836 835 835 835 835 834 835 836 836 835 835 835 834 836 838 838 835 840 840 839 837 840
810 817 821 824 826 828 830 832 834 835 836 837 837 838 838 837 837 837 837 836 833 832 832 831 832 834 833 832 831 830 831 833 835 834 837 837 835 832 835 838 835 838 840
809 817 821 824 827 829 830 832 833 834 835 836 837 837 836 836 835 836 835 832 831 830 830 829 828 829 830 833 832 827 826 832 830 830 834 833 836 832 832 832 833 835 838
806 813 818 822 826 828 830 831 832 833 834 834 835 835 834 834 834 834 832 830 830 830 828 825 826 826 830 835 832 833 835 832 831 834 836 830 834 830 829 829 831 831 835
807 812 816 820 824 827 829 830 831 832 832 833 834 834 832 831 832 833 831 831 830 828 825 821 822 823 824 831 833 829 833 819 822 822 828 827 829 827 826 826 827 829 831
808 812 814 817 820 824 827 829 829 830 830 831 833 833 831 831 832 832 831 831 830 827 823 821 820 821 822 830 826 821 815 809 810 821 820 826 824 822 821 822 824 825 828
805 809 813 816 820 823 824 826 826 827 827 829 830 831 830 831 830 831 830 830 824 819 818 819 819 821 824 823 820 821 822 795 809 816 819 821 823 819 818 817 819 823 826
803 806 812 814 818 820 822 824 825 826 827 826 826 829 829 829 828 831 831 828 824 816 819 821 819 820 820 820 822 821 807 810 815 817 817 817 816 813 815 816 817 820 824
801 804 808 813 817 820 822 824 824 825 825 825 825 827 830 830 830 831 830 822 819 818 815 819 820 818 817 817 811 814 813 812 812 813 812 813 812 810 813 815 817 819 822
800 804 807 812 817 820 822 823 824 824 824 823 823 827 830 831 831 829 828 827 824 820 821 818 821 819 816 813 813 810 810 810 810 809 808 810 811 811 813 814 815 816 818
798 803 806 811 816 819 821 823 823 823 823 823 825 827 830 831 831 829 827 822 817 821 824 822 824 820 819 812 807 805 805 805 807 808 807 808 810 811 813 814 815 815 816
796 801 804 809 813 817 819 821 821 821 822 824 824 826 828 827 827 826 824 823 818 823 827 826 825 824 820 817 809 804 804 804 806 807 808 809 810 812 814 814 815 816 815
794 800 804 808 811 815 817 819 820 820 821 822 824 824 824 824 823 824 823 823 822 824 826 828 828 824 820 815 809 805 804 804 805 806 805 808 811 813 813 814 814 814 814
794 800 804 807 810 814 817 818 818 818 819 821 822 822 820 822 818 820 825 824 825 826 827 827 825 822 822 819 813 808 804 801 803 805 805 807 809 811 813 813 814 814 814
793 799 803 807 809 813 815 817 817 816 816 818 818 820 819 820 816 818 823 825 825 824 825 825 826 825 821 821 816 809 804 801 803 804 805 809 809 811 812 813 814 813 813
790 797 801 805 807 811 813 813 813 813 813 814 815 817 818 819 818 820 822 823 823 823 820 819 822 824 822 821 820 814 808 803 803 805 805 808 810 811 811 812 813 813 811
786 792 798 802 805 808 809 811 812 812 811 813 814 816 816 817 818 820 823 824 824 821 816 816 813 817 818 816 818 816 812 810 804 803 806 807 809 811 811 811 812 813 812
781 788 794 798 802 805 807 809 810 811 812 811 811 812 813 814 815 817 819 821 821 819 815 809 813 814 816 815 814 810 808 806 808 807 804 806 808 809 811 812 811 812 812
777 782 788 794 798 802 804 806 808 809 810 810 809 811 811 812 812 813 814 815 817 816 814 812 813 813 815 815 812 809 805 803 800 795 799 805 810 810 810 810 808 811 812
772 777 781 786 792 797 800 802 804 806 808 809 809 809 809 809 807 807 810 812 813 814 815 815 815 816 815 815 812 808 805 803 796 788 789 800 803 808 808 808 807 809 809
Wind_Speed
19 21 23 23 21 20 20 20 20 20 21 19 21 18 18 19 17 16 16 16 15 16 15 14 12 11 9 9 8 7 8 8 8 8 8 8 9 10 8 8 8 7 9
23 21 23 22 21 19 19 20 20 20 20 18 18 17 16 17 16 15 15 14 13 12 12 11 10 10 9 8 7 6 6 7 7 7 6 6 7 8 7 6 3 8 7
24 22 21 22 21 18 18 19 19 18 18 16 15 14 14 13 13 12 12 11 10 10 9 8 7 6 5 5 5 4 4 5 5 5 4 2 5 6 6 7 7 8 7
24 22 21 21 20 18 18 17 17 16 14 13 13 13 11 11 10 9 8 7 7 6 5 4 3 2 1 1 1 1 2 3 4 4 3 4 8 8 5 7 7 7 5
25 22 21 21 19 17 16 15 14 13 12 11 10 10 9 8 7 5 5 4 4 3 2 1 1 1 1 2 3 4 4 5 6 5 3 4 9 4 6 7 7 6 7
25 21 21 20 17 16 14 13 12 11 10 9 8 7 6 4 4 3 3 2 2 0 1 3 3 3 4 5 6 6 6 7 8 7 7 7 11 7 7 8 10 5 4
24 21 19 19 18 17 15 13 12 10 8 7 6 4 3 2 1 1 2 1 1 2 3 4 5 5 6 6 7 8 8 8 9 13 16 13 14 7 5 8 11 11 10
25 21 19 17 16 15 14 12 10 9 7 6 4 3 2 1 1 1 1 1 2 4 4 6 7 7 8 8 8 9 9 9 10 14 5 15 19 6 13 9 11 11 11
26 21 18 15 14 13 13 12 10 8 7 5 4 3 3 3 2 2 2 2 3 4 5 6 7 7 9 9 10 13 10 9 10 15 3 11 22 17 16 11 10 13 13
26 24 23 19 15 13 12 12 10 8 7 6 4 3 4 5 3 4 2 5 7 5 5 8 9 7 7 7 10 18 9 8 8 13 7 10 17 14 11 10 12 15 16
14 28 23 20 19 18 15 11 9 8 8 7 6 1 4 5 8 6 5 5 4 3 4 6 9 8 8 5 10 14 12 9 20 16 22 16 15 12 11 11 15 16 19
18 15 16 17 17 22 16 9 9 9 9 5 6 5 6 4 4 5 8 8 5 7 12 8 9 11 10 12 17 4 21 17 10 15 8 20 10 8 11 14 16 18 21
19 17 15 17 15 12 18 9 12 16 13 10 9 8 4 5 3 7 5 8 8 12 12 14 14 12 7 15 9 16 2 8 9 12 14 8 7 4 8 12 16 19 22
18 19 16 16 15 12 10 8 8 5 5 9 9 5 6 3 6 5 5 6 9 10 12 16 4 7 10 1 11 2 16 3 8 6 9 13 10 4 7 11 14 18 22
17 17 19 17 14 5 11 6 2 5 7 10 8 9 6 5 5 5 5 10 9 9 9 10 3 9 10 4 14 9 12 3 2 2 9 8 1 1 4 7 10 14 18
18 16 20 18 16 10 9 5 5 8 8 7 10 13 5 4 6 6 8 7 8 12 5 5 7 9 7 13 6 8 10 12 3 6 3 4 3 2 1 2 6 9 13
18 19 19 18 15 14 11 10 10 10 9 11 8 3 2 3 5 7 6 6 6 5 7 7 5 12 10 18 14 15 15 5 10 11 12 9 6 4 4 4 2 3 8
18 17 20 17 18 16 14 12 13 8 10 4 5 6 4 4 4 6 7 2 7 19 16 4 11 12 22 13 14 16 12 7 9 8 8 10 7 6 6 2 3 4 6
21 16 17 17 19 18 15 12 8 6 6 7 8 11 7 7 4 7 2 5 8 17 10 14 17 23 20 15 27 12 8 6 8 7 10 6 7 5 4 2 4 7 5
23 18 16 15 18 17 15 12 12 12 9 10 10 6 6 2 6 7 9 8 9 14 9 12 8 6 13 11 18 16 16 4 8 8 12 9 7 3 1 2 7 6 6
22 21 18 16 19 16 15 12 10 11 14 16 10 13 9 4 12 9 6 11 8 7 5 5 5 7 3 12 17 20 5 8 11 14 8 8 6 4 1 3 3 5 6
24 22 20 18 21 18 16 16 16 13 13 13 13 10 9 8 11 9 5 7 7 7 12 12 7 4 5 8 9 12 4 4 17 6 8 8 5 6 4 2 6 5 3
26 25 23 20 21 20 19 15 10 9 8 4 4 7 11 10 8 9 6 6 8 8 5 12 18 3 6 11 11 1 3 4 9 12 3 6 6 6 5 5 3 4 6
25 26 24 25 20 22 19 15 16 12 12 13 12 16 16 12 10 8 7 6 6 6 10 9 11 7 7 11 15 5 6 6 1 3 4 7 8 7 7 4 4 6 5
24 26 25 26 23 21 22 19 13 14 13 10 8 10 9 9 10 12 11 9 4 9 7 7 9 7 10 11 13 14 13 10 15 8 1 5 13 10 6 5 6 5 7
24 24 29 30 27 24 21 22 20 14 15 10 8 12 8 10 19 20 15 10 6 9 11 8 6 9 9 9 9 10 16 11 7 11 4 2 3 8 7 5 5 4 6
Wind_Direction
122 131 128 123 116 114 113 107 104 103 99 100 92 90 89 88 87 87 87 88 90 90 90 91 92 91 90 84 79 80 79 79 83 85 87 89 92 95 92 88 86 97 102
129 134 130 127 120 122 120 112 107 105 103 102 99 93 91 90 92 95 92 91 91 92 93 92 91 92 91 89 92 92 96 97 93 95 101 98 105 109 112 81 78 129 106
128 134 132 130 125 121 118 115 111 108 103 103 100 99 96 96 94 94 94 94 93 93 93 92 90 90 94 98 99 103 112 118 124 127 132 159 127 112 134 111 105 103 109
130 133 136 136 134 128 122 118 115 113 110 105 100 96 100 100 99 98 97 96 96 98 98 99 99 96 110 151 150 153 176 173 165 177 187 253 164 109 149 148 119 109 110
127 132 141 140 140 133 127 121 120 120 116 112 104 99 100 94 92 95 96 89 86 91 99 131 173 220 245 264 258 245 237 232 215 206 162 145 181 98 175 144 115 105 114
132 131 138 140 141 137 134 131 127 127 121 117 112 105 99 91 94 100 98 103 109 189 250 247 240 233 229 233 241 254 255 248 244 232 234 140 150 150 182 133 141 136 131
127 133 137 140 142 141 140 137 136 134 131 131 127 125 117 119 127 144 164 183 224 254 263 267 261 249 239 242 246 249 254 257 252 259 236 203 168 168 184 167 153 167 172
130 135 136 139 140 143 143 143 143 146 148 151 156 155 172 187 193 194 158 214 238 246 253 254 255 257 253 244 242 242 245 246 257 275 236 191 212 208 197 180 173 188 187
130 138 142 145 150 149 149 148 153 161 164 168 184 190 187 169 146 115 154 227 275 270 266 264 257 254 254 250 254 241 226 240 255 249 217 218 213 178 185 191 188 202 197
141 148 151 151 155 156 160 163 168 176 184 185 178 174 194 205 212 189 230 260 301 282 295 279 267 263 272 270 295 276 259 266 263 278 243 153 174 182 192 206 213 213 205
129 144 151 157 171 171 167 166 173 178 180 178 172 147 236 268 252 237 251 274 292 284 252 259 251 236 242 195 260 280 241 255 245 190 247 219 216 219 218 224 217 216 215
147 157 142 158 157 172 156 173 174 192 197 198 216 238 273 278 199 213 246 274 278 266 286 278 262 241 268 240 218 214 215 264 276 209 316 218 211 211 221 226 221 220 222
159 167 162 151 152 175 150 163 190 193 183 191 204 214 266 251 255 246 262 272 253 241 273 297 280 259 302 297 349 257 211 1 253 239 226 229 232 256 242 227 220 221 226
168 162 164 148 174 173 137 196 170 177 182 204 191 190 205 221 249 270 293 289 310 260 269 280 313 284 280 267 334 293 5 303 280 306 230 216 214 280 260 240 228 221 226
166 158 159 155 182 148 155 193 189 161 195 202 220 210 202 254 267 266 246 280 183 229 302 263 293 300 303 311 6 256 298 328 189 44 228 187 128 171 278 252 239 228 228
165 161 148 152 176 172 179 148 183 199 188 215 238 189 192 221 284 300 272 296 270 287 264 253 298 302 304 339 328 342 299 269 176 12 107 130 41 71 10 281 252 236 236
164 167 158 164 174 178 176 187 201 223 235 221 231 178 229 246 277 296 309 317 248 266 281 256 316 307 343 356 341 327 318 348 89 78 78 63 71 35 15 346 326 262 241
169 168 162 181 172 177 179 188 208 213 239 253 220 223 210 224 227 255 290 53 289 281 273 136 356 7 25 342 328 313 310 52 88 89 49 54 42 34 344 352 1 327 290
151 160 158 181 164 177 180 190 229 222 237 243 225 233 192 227 277 266 265 312 277 282 282 56 41 35 356 323 305 350 356 126 117 104 86 94 85 18 336 269 331 318 290
147 159 169 167 169 175 181 201 218 222 222 232 244 214 229 208 201 225 257 266 261 285 72 46 53 62 235 303 321 330 307 183 135 108 119 111 66 21 319 297 337 335 293
154 164 168 181 163 178 179 194 217 228 228 214 216 230 191 252 282 233 276 232 251 295 358 52 351 328 319 343 336 336 118 72 182 133 107 105 73 88 105 270 3 2 305
162 168 177 184 179 188 199 217 217 225 231 224 209 209 210 236 278 288 280 309 9 6 34 356 289 294 332 327 311 333 342 30 28 91 126 128 93 85 72 30 334 356 324
167 173 181 191 189 197 207 212 240 270 298 315 253 215 210 222 246 253 234 311 330 332 16 249 269 300 332 322 319 242 338 21 338 8 151 173 123 117 56 49 44 325 26
173 176 187 192 197 201 215 228 207 205 229 227 232 240 224 215 229 267 232 242 264 292 264 251 237 338 318 305 313 242 270 289 303 332 82 179 159 136 104 87 44 354 357
188 180 184 190 199 207 209 217 217 215 245 258 261 154 187 197 231 233 249 231 250 298 307 321 323 312 324 317 348 350 333 352 263 220 138 60 132 119 108 103 59 351 338
193 191 184 186 196 206 206 215 223 217 224 256 222 274 227 245 246 236 234 243 238 271 288 292 285 296 303 305 316 324 313 315 301 311 81 1 2 124 115 88 62 1 345